sat.trackr.live / text

‹ back to catalog

STARLINK-4011

NORAD 52615 · 2022-052T

PAYLOAD ACTIVE UNKNOWN

§ Identity

Operator
Country
US
Launch date
2022-05-14
Launch site
AFETR
Launch vehicle
Mass (kg)
RCS (m²)

Purposes: comms

External: N2YO · Heavens-Above · Gunter

§ Orbital elements

Epoch: 2026-05-24T15:40:14.376288Z

Period
95.44 min
Inclination
53.2144°
Eccentricity
0.0001477
Mean motion
15.08842598 rev/d
Perigee alt
538.7 km
Apogee alt
540.8 km
Semi-major
6,917.9 km
B*
-6.5111e-6
RAAN
303.1059°
Arg perigee
100.1456°
Mean anomaly
259.9703°
Rev number
22,224

§ Raw data

STARLINK-40111 52615U 22052T   26144.65294417 -.00000392  00000+0 -65111-5 0  99992 52615  53.2144 303.1059 0001477 100.1456 259.9703 15.08842598222244

JSON: /api/v1/satellites/52615 · /tle

For live sub-satellite position, see the globe view (requires WebGL).

§ Visibility from observer

Set your observer location to see the next 7 days of passes ≥ 10°. The values pass through the URL so the page stays shareable.

No JS? Fill the form by hand. The geolocation button needs JavaScript.